Regional Weather Roundup
Issued by NWS

Home | Current Version | Previous Version | Graphics & Text | Print | Product List | Glossary On
Versions: 1 2 3 4 5 6 7 8 9 10 11 12 13 14 15 16 17 18 19 20 21 22 23 24 25 26 27 28 29 30 31 32 33 34 35 36 37 38 39 40 41 42 43 44 45 46 47 48 49 50
000
ASUS44 KMEG 311100
RWRTN
TENNESSEE HOURLY STATE WEATHER ROUNDUP
NATIONAL WEATHER SERVICE MEMPHIS TN
600 AM CDT FRI JUL 31 2015

TNZ002-004-019-021-049-052-054-088>092-311200-
WEST TENNESSEE

CITY           SKY/WX    TMP DP  RH WIND       PRES   REMARKS
MEMPHIS INTL   PTCLDY    73  64  73 CALM      30.09R
NWS MEMPHIS      N/A     67 N/A N/A MISG        N/A
JACKSON        CLEAR     65  61  87 NW3       30.09R
DYERSBURG        N/A    N/A N/A N/A MISG        N/A
PARIS          CLEAR     61  59  94 CALM      30.10S
LEXINGTON      CLEAR     64  64 100 CALM      30.08S
$$

TNZ008-025-027-028-033-062-065-066-311200-
NORTH MIDDLE TENNESSEE

CITY           SKY/WX    TMP DP  RH WIND       PRES   REMARKS
NASHVILLE      PTCLDY    66  63  90 CALM      30.09R
CLARKSVILLE    CLEAR     65  63  93 W3        30.09R
CROSSVILLE     CLEAR     61  56  83 CALM      30.12R
$$

TNZ061-075-076-078-094-096-097-311200-
SOUTH MIDDLE TENNESSEE

CITY           SKY/WX    TMP DP  RH WIND       PRES   REMARKS
FAYETTEVILLE   CLEAR     63  57  82 N5        30.07R
TULLAHOMA      CLEAR     66  59  77 CALM      30.09R
WINCHESTER     CLEAR     59  59 100 CALM      30.07S
MCMINNVILLE    CLEAR     61  61 100 N3        30.09R
COLUMBIA       CLEAR     63  63 100 CALM      30.08R
SHELBYVILLE    CLEAR     61  61 100 N5        30.09R
$$

TNZ017-018-042-046-047-311200-
NORTHEAST TENNESSEE

CITY           SKY/WX    TMP DP  RH WIND       PRES   REMARKS
TRI CITIES     PTCLDY    60  59  96 CALM      30.09R
ELIZABETHTON   SUNNY     57  57 100 CALM      30.10R
$$

TNZ012-013-036-069-073-074-311200-
CENTRAL EAST TENNESSEE

CITY           SKY/WX    TMP DP  RH WIND       PRES   REMARKS
KNOXVILLE      PTCLDY    68  61  78 N5        30.05R
OAK RIDGE      CLEAR     65  61  87 CALM      30.08R
GATLINBURG     CLOUDY    66  64  94 CALM      30.06R
$$

TNZ083-085-099-311200-
SOUTHEAST TENNESSEE

CITY           SKY/WX    TMP DP  RH WIND       PRES   REMARKS
CHATTANOOGA    PTCLDY    73  58  59 N10       30.02S
$$

SKY/WX REPORTED AS FAIR MEANS FEW OR NO CLOUDS BELOW
12 THOUSAND FEET.



USA.gov is the U.S. government's official web portal to all federal, state and local government web resources and services.